PROFILE

 METAR AND TAF INFORMATION
ADDS - METARS form results

(0836 UTC 19 August 2019)
http://aviationweather.gov/metar/data/
 
ESSA 190820Z 23014KT 9999 SCT023 16/11 Q1005 NOSIG
ESSA 190750Z 23015KT 9999 SCT019 16/12 Q1005 NOSIG
TAF AMD ESSA 190649Z 1906/2006 23008KT 9999 FEW008 SCT025 PROB40 1906/1908 BKN012 

 AIRPORT MAP

 RUNWAY INFORMATION
Runway 01L Runway length 10830 ft Runway width 148 ft
Runway elevation 98 ft Runway displaced threshold 0 ft Runway heading 10
Runway 19R Runway length 10830 ft Runway width 148 ft
Runway elevation 118 ft Runway displaced threshold 0 ft Runway heading 190
Runway 01R Runway length 8201 ft Runway width 148 ft
Runway elevation 137 ft Runway displaced threshold 0 ft Runway heading 10
Runway 19L Runway length 8201 ft Runway width 148 ft
Runway elevation 98 ft Runway displaced threshold 0 ft Runway heading 190
Runway 08 Runway length 8202 ft Runway width 148 ft
Runway elevation 108 ft Runway displaced threshold 0 ft Runway heading 76
Runway 26 Runway length 8202 ft Runway width 148 ft
Runway elevation 124 ft Runway displaced threshold 0 ft Runway heading 256

 AIRPORT FREQUENCIES
Type APP Name STOCKHOLM Frequency 123.75 MHZ
Type ATIS Name ATIS Frequency 119 MHZ
Type CLD Name CLNC DEL Frequency 121.825 MHZ
Type GND Name GND Frequency 121.7 MHZ
Type PMSV Name MET OFFICE Frequency 122.6 MHZ
Type TWR Name TWR Frequency 118.5 MHZ

 AIRPORT NEAR NAVIGATION AIDS
Type VOR-DME Name Arlanda Frequency 116000 KHZ
Type NDB Name Arlanda Frequency 352 KHZ
Type NDB Name Arlanda Frequency 360 KHZ
Type NDB Name Arlanda Frequency 404 KHZ
Type NDB Name Arlanda Frequency 370 KHZ